• In Belarus
  • List of Countries
  • For 7 days
  • Water Temperature
  • Satellite Maps
  • Weather Map
  • Weather Widgets
  • user-avatar
    Login

    Hourly Weather Fastiv

    Today, 22 October, Sunday

    Time Temperature Precipitation Wind Pressure Humidity
    00:00 +8°C° 0.2 mm 3 mps 741 mmHg 92%
    01:00 +7°C° 0.2 mm 4 mps 741 mmHg 90%
    02:00 +7°C° 0 mm 4 mps 741 mmHg 91%
    03:00 +6°C° 0 mm 4 mps 742 mmHg 89%
    04:00 +5°C° 0 mm 5 mps 742 mmHg 87%
    05:00 +3°C° 0 mm 5 mps 742 mmHg 85%
    06:00 +3°C° 0 mm 5 mps 743 mmHg 84%
    07:00 +3°C° 0 mm 5 mps 743 mmHg 83%
    08:00 +3°C° 0 mm 5 mps 744 mmHg 81%
    09:00 +4°C° 0 mm 4 mps 745 mmHg 77%
    10:00 +5°C° 0 mm 4 mps 745 mmHg 73%
    11:00 +5°C° 0 mm 4 mps 746 mmHg 69%
    12:00 +6°C° 0 mm 4 mps 746 mmHg 66%
    13:00 +6°C° 0 mm 4 mps 746 mmHg 62%
    14:00 +8°C° 0 mm 3 mps 746 mmHg 56%
    15:00 +7°C° 0 mm 3 mps 746 mmHg 59%
    16:00 +6°C° 0 mm 2 mps 746 mmHg 62%
    17:00 +5°C° 0 mm 2 mps 746 mmHg 65%
    18:00 +5°C° 0 mm 2 mps 746 mmHg 67%
    19:00 +4°C° 0 mm 2 mps 746 mmHg 69%
    20:00 +3°C° 0 mm 2 mps 747 mmHg 70%
    21:00 +3°C° 0 mm 2 mps 747 mmHg 71%
    22:00 +3°C° 0 mm 2 mps 747 mmHg 72%
    23:00 +2°C° 0 mm 2 mps 747 mmHg 73%

    Tomorrow, 23 October, Monday

    Time Temperature Precipitation Wind Pressure Humidity
    00:00 +1°C° 0 mm 3 mps 747 mmHg 73%
    01:00 +1°C° 0 mm 3 mps 746 mmHg 74%
    02:00 0°C° 0 mm 3 mps 746 mmHg 75%
    03:00 0°C° 0 mm 3 mps 746 mmHg 77%
    04:00 0°C° 0 mm 3 mps 746 mmHg 78%
    05:00 0°C° 0 mm 3 mps 745 mmHg 80%
    06:00 0°C° 0 mm 3 mps 745 mmHg 78%
    07:00 0°C° 0 mm 4 mps 745 mmHg 76%
    08:00 0°C° 0 mm 4 mps 745 mmHg 75%
    09:00 +3°C° 0 mm 4 mps 745 mmHg 69%
    10:00 +4°C° 0 mm 4 mps 745 mmHg 64%
    11:00 +5°C° 0 mm 5 mps 745 mmHg 59%
    12:00 +6°C° 0 mm 5 mps 745 mmHg 57%
    13:00 +6°C° 0 mm 5 mps 744 mmHg 55%
    14:00 +7°C° 0 mm 5 mps 744 mmHg 54%
    15:00 +6°C° 0 mm 4 mps 744 mmHg 55%
    16:00 +6°C° 0 mm 4 mps 744 mmHg 57%
    17:00 +5°C° 0 mm 4 mps 744 mmHg 59%
    18:00 +5°C° 0 mm 4 mps 744 mmHg 60%
    19:00 +4°C° 0 mm 4 mps 744 mmHg 61%
    20:00 +3°C° 0 mm 5 mps 744 mmHg 62%
    21:00 +3°C° 0 mm 5 mps 745 mmHg 62%
    22:00 +4°C° 0 mm 4 mps 745 mmHg 61%
    23:00 +4°C° 0 mm 4 mps 745 mmHg 60%

    Day after tomorrow, 24 October, Tuesday

    Time Temperature Precipitation Wind Pressure Humidity
    00:00 +3°C° 0 mm 5 mps 745 mmHg 59%
    01:00 +3°C° 0 mm 5 mps 745 mmHg 58%
    02:00 +3°C° 0 mm 5 mps 746 mmHg 57%
    03:00 +2°C° 0 mm 5 mps 746 mmHg 56%
    04:00 +2°C° 0 mm 5 mps 746 mmHg 56%
    05:00 +2°C° 0 mm 5 mps 746 mmHg 56%
    06:00 +2°C° 0 mm 5 mps 746 mmHg 56%
    07:00 +2°C° 0 mm 5 mps 747 mmHg 56%
    08:00 +2°C° 0 mm 5 mps 747 mmHg 56%
    09:00 +3°C° 0 mm 5 mps 747 mmHg 55%
    10:00 +3°C° 0 mm 5 mps 748 mmHg 54%
    11:00 +4°C° 0 mm 6 mps 748 mmHg 53%
    12:00 +4°C° 0 mm 6 mps 748 mmHg 53%
    13:00 +6°C° 0 mm 5 mps 748 mmHg 53%
    14:00 +6°C° 0 mm 5 mps 749 mmHg 53%
    15:00 +5°C° 0.2 mm 5 mps 749 mmHg 56%
    16:00 +5°C° 0.2 mm 5 mps 749 mmHg 59%
    17:00 +3°C° 0.2 mm 5 mps 749 mmHg 62%
    18:00 +3°C° 0.3 mm 5 mps 750 mmHg 64%
    19:00 +3°C° 0.3 mm 4 mps 750 mmHg 66%
    20:00 +3°C° 0.3 mm 4 mps 750 mmHg 68%
    21:00 +3°C° 0.1 mm 4 mps 750 mmHg 70%
    22:00 +1°C° 0.1 mm 4 mps 751 mmHg 72%
    23:00 +2°C° 0.1 mm 3 mps 751 mmHg 74%

    25 October, Wednesday

    Time Temperature Precipitation Wind Pressure Humidity
    00:00 +2°C° 0 mm 3 mps 751 mmHg 75%
    01:00 +1°C° 0 mm 3 mps 751 mmHg 77%
    02:00 +1°C° 0 mm 3 mps 751 mmHg 78%
    03:00 0°C° 0 mm 3 mps 751 mmHg 79%
    04:00 0°C° 0 mm 3 mps 751 mmHg 80%
    05:00 0°C° 0 mm 3 mps 751 mmHg 80%
    06:00 0°C° 0 mm 3 mps 752 mmHg 78%
    07:00 0°C° 0 mm 3 mps 752 mmHg 76%
    08:00 -1°C° 0 mm 4 mps 752 mmHg 74%
    09:00 0°C° 0 mm 4 mps 752 mmHg 68%
    10:00 +3°C° 0 mm 4 mps 752 mmHg 62%
    11:00 +4°C° 0 mm 4 mps 752 mmHg 57%
    12:00 +5°C° 0 mm 3 mps 752 mmHg 54%
    13:00 +5°C° 0 mm 3 mps 752 mmHg 52%
    14:00 +7°C° 0 mm 3 mps 752 mmHg 50%
    15:00 +5°C° 0 mm 3 mps 752 mmHg 54%
    16:00 +5°C° 0 mm 2 mps 751 mmHg 59%
    17:00 +3°C° 0 mm 2 mps 751 mmHg 63%
    18:00 +3°C° 0 mm 2 mps 751 mmHg 65%
    19:00 +2°C° 0 mm 2 mps 752 mmHg 67%
    20:00 +2°C° 0 mm 2 mps 752 mmHg 69%
    21:00 +2°C° 0 mm 2 mps 751 mmHg 70%
    22:00 +2°C° 0 mm 2 mps 751 mmHg 71%
    23:00 +1°C° 0 mm 2 mps 751 mmHg 72%

    26 October, Thursday

    Time Temperature Precipitation Wind Pressure Humidity
    00:00 +2°C° 0 mm 2 mps 750 mmHg 72%
    01:00 +2°C° 0 mm 2 mps 750 mmHg 71%
    02:00 +1°C° 0 mm 3 mps 750 mmHg 70%
    03:00 +1°C° 0.2 mm 3 mps 749 mmHg 72%
    04:00 +2°C° 0.2 mm 3 mps 749 mmHg 73%
    05:00 +2°C° 0.2 mm 3 mps 748 mmHg 74%
    06:00 +1°C° 0.3 mm 4 mps 748 mmHg 77%
    07:00 +1°C° 0.3 mm 4 mps 747 mmHg 79%
    08:00 +1°C° 0.3 mm 5 mps 747 mmHg 81%
    09:00 +2°C° 0.1 mm 5 mps 747 mmHg 83%
    10:00 +2°C° 0.1 mm 5 mps 746 mmHg 84%
    11:00 +3°C° 0.1 mm 5 mps 746 mmHg 86%
    12:00 +5°C° 0 mm 4 mps 746 mmHg 86%
    13:00 +6°C° 0 mm 4 mps 746 mmHg 87%
    14:00 +7°C° 0 mm 4 mps 745 mmHg 87%
    15:00 +8°C° 0 mm 3 mps 745 mmHg 89%
    16:00 +8°C° 0 mm 3 mps 745 mmHg 91%
    17:00 +8°C° 0 mm 3 mps 744 mmHg 94%
    18:00 +8°C° 0 mm 3 mps 744 mmHg 94%
    19:00 +7°C° 0 mm 3 mps 744 mmHg 94%
    20:00 +7°C° 0 mm 3 mps 743 mmHg 94%
    21:00 +8°C° 0.2 mm 3 mps 743 mmHg 95%
    22:00 +8°C° 0.2 mm 3 mps 743 mmHg 95%
    23:00 +8°C° 0.2 mm 3 mps 742 mmHg 96%

    27 October, Friday

    Time Temperature Precipitation Wind Pressure Humidity
    00:00 +8°C° 0.6 mm 3 mps 742 mmHg 96%
    01:00 +8°C° 0.6 mm 3 mps 741 mmHg 96%
    02:00 +8°C° 0.6 mm 3 mps 741 mmHg 96%
    03:00 +8°C° 0.2 mm 3 mps 740 mmHg 96%
    04:00 +8°C° 0.2 mm 3 mps 740 mmHg 96%
    05:00 +8°C° 0.2 mm 2 mps 739 mmHg 96%
    06:00 +8°C° 0.1 mm 2 mps 739 mmHg 96%
    07:00 +8°C° 0.1 mm 2 mps 738 mmHg 96%
    08:00 +9°C° 0.1 mm 2 mps 738 mmHg 96%
    09:00 +10°C° 0 mm 2 mps 738 mmHg 91%
    10:00 +11°C° 0 mm 3 mps 737 mmHg 86%
    11:00 +12°C° 0 mm 3 mps 737 mmHg 81%
    12:00 +12°C° 0.1 mm 3 mps 737 mmHg 82%
    13:00 +12°C° 0.1 mm 3 mps 736 mmHg 82%
    14:00 +11°C° 0.1 mm 3 mps 736 mmHg 83%
    15:00 +12°C° 0.4 mm 2 mps 735 mmHg 86%
    16:00 +10°C° 0.4 mm 2 mps 735 mmHg 90%
    17:00 +11°C° 0.4 mm 1 mps 734 mmHg 93%
    18:00 +10°C° 0.9 mm 2 mps 734 mmHg 93%
    19:00 +10°C° 0.9 mm 2 mps 733 mmHg 94%
    20:00 +10°C° 0.9 mm 3 mps 733 mmHg 94%
    21:00 +10°C° 0.8 mm 3 mps 732 mmHg 92%
    22:00 +10°C° 0.8 mm 4 mps 732 mmHg 90%
    23:00 +10°C° 0.8 mm 4 mps 731 mmHg 88%
    Show more